This is the latest recevied weather packets stored in our database for station/object YT6PT-8. If no packets are shown the sender has not sent any weather packets the latest 10 day(s).
| Time | Temp. | Humidity | Pressure | Rain* | Wind** | Luminosity | Snow |
|---|---|---|---|---|---|---|---|
| 1787944233 | 21.67° C | 65% | 1009.1 hPa | 0 mm | 4.02 m/s, 180° | - | - |
| 1787943933 | 21.67° C | 65% | 1009.1 hPa | 0 mm | 4.02 m/s, 180° | - | - |
| 1787943634 | 22.22° C | 64% | 1009.2 hPa | 0 mm | 2.24 m/s, 158° | - | - |
| 1787943332 | 22.22° C | 64% | 1009.2 hPa | 0 mm | 2.24 m/s, 158° | - | - |
| 1787943054 | 22.22° C | 64% | 1009.1 hPa | 0 mm | 1.34 m/s, 158° | - | - |
| 1787942752 | 22.22° C | 64% | 1009.1 hPa | 0 mm | 1.34 m/s, 158° | - | - |
| 1787942433 | 22.78° C | 63% | 1008.9 hPa | 0 mm | 2.24 m/s, 158° | - | - |
| 1787942133 | 22.78° C | 63% | 1008.9 hPa | 0 mm | 2.24 m/s, 158° | - | - |
| 1787941833 | 22.78° C | 63% | 1008.9 hPa | 0 mm | 2.24 m/s, 158° | - | - |
| 1787941532 | 22.78° C | 63% | 1008.9 hPa | 0 mm | 2.24 m/s, 158° | - | - |
| 1787941232 | 23.33° C | 63% | 1008.8 hPa | 0 mm | 3.13 m/s, 158° | - | - |
| 1787940933 | 23.33° C | 63% | 1008.8 hPa | 0 mm | 3.13 m/s, 158° | - | - |
| 1787940633 | 23.33° C | 62% | 1008.8 hPa | 0 mm | 2.24 m/s, 158° | - | - |
| 1787940331 | 23.33° C | 62% | 1008.8 hPa | 0 mm | 2.24 m/s, 158° | - | - |
| 1787940055 | 23.89° C | 62% | 1008.6 hPa | 0 mm | 0.89 m/s, 158° | - | - |
| 1787939732 | 23.89° C | 62% | 1008.6 hPa | 0 mm | 0.89 m/s, 158° | - | - |
| 1787939444 | 25° C | 59% | 1008.8 hPa | 0 mm | 2.24 m/s, 158° | - | - |
| 1787939132 | 25° C | 59% | 1008.8 hPa | 0 mm | 2.24 m/s, 158° | - | - |
| 1787938830 | 25° C | 59% | 1008.8 hPa | 0 mm | 2.24 m/s, 158° | - | - |
| 1787938533 | 25° C | 59% | 1008.8 hPa | 0 mm | 2.24 m/s, 158° | - | - |
| 1787938233 | 25° C | 59% | 1008.8 hPa | 0 mm | 2.24 m/s, 158° | - | - |
| 1787937933 | 25.56° C | 53% | 1009 hPa | 0 mm | 1.34 m/s, 68° | - | - |
| 1787937639 | 25.56° C | 53% | 1009 hPa | 0 mm | 1.34 m/s, 68° | - | - |
| 1787937349 | 26.11° C | 53% | 1009 hPa | 0 mm | 0 m/s | - | - |
| 1787937033 | 26.11° C | 53% | 1009 hPa | 0 mm | 0 m/s | - | - |
* Rain latest hour (hover to see other rain measurements)
** Current wind speed in m/s (hover to see current wind gust speed)